This is the latest recevied weather packets stored in our database for station/object AC0MR. If no packets are shown the sender has not sent any weather packets the latest 10 day(s).
| Time | Temp. | Humidity | Pressure | Rain* | Wind** | Luminosity | Snow |
|---|---|---|---|---|---|---|---|
| 1777300519 | 13.89° C | 90% | 1001.8 hPa | 7.37 mm | - | 13 W/m² | - |
| 1777299919 | 13.89° C | 90% | 1002.8 hPa | 7.87 mm | - | 10 W/m² | - |
| 1777299319 | 13.89° C | 90% | 1003.5 hPa | 8.38 mm | - | 12 W/m² | - |
| 1777298719 | 13.89° C | 89% | 1004.4 hPa | 6.86 mm | - | 9 W/m² | - |
| 1777298119 | 13.89° C | 88% | 1004.5 hPa | 6.1 mm | - | 9 W/m² | - |
| 1777297519 | 14.44° C | 87% | 1004.4 hPa | 5.08 mm | - | 10 W/m² | - |
| 1777296919 | 14.44° C | 86% | 1004.5 hPa | 4.32 mm | - | 9 W/m² | - |
| 1777296319 | 15° C | 86% | 1004.4 hPa | 3.3 mm | - | 9 W/m² | - |
| 1777295719 | 15° C | 85% | 1004.1 hPa | 1.52 mm | - | 8 W/m² | - |
| 1777295119 | 15° C | 84% | 1004.2 hPa | 1.02 mm | - | 8 W/m² | - |
| 1777294518 | 15° C | 83% | 1004.3 hPa | 0.51 mm | - | 7 W/m² | - |
| 1777293918 | 15° C | 82% | 1004.1 hPa | 0.25 mm | - | 12 W/m² | - |
| 1777293319 | 15° C | 81% | 1004.2 hPa | 0 mm | - | 11 W/m² | - |
| 1777292718 | 15° C | 80% | 1004.4 hPa | 0 mm | - | 8 W/m² | - |
| 1777292118 | 15° C | 80% | 1004.8 hPa | 0 mm | - | 7 W/m² | - |
| 1777291519 | 15° C | 80% | 1004.2 hPa | 0 mm | - | 14 W/m² | - |
| 1777290918 | 15° C | 80% | 1004.2 hPa | 0 mm | - | 9 W/m² | - |
| 1777290319 | 15° C | 80% | 1004.6 hPa | 0 mm | - | 8 W/m² | - |
| 1777289719 | 14.44° C | 81% | 1004.4 hPa | 0 mm | - | 7 W/m² | - |
| 1777289118 | 14.44° C | 81% | 1004.5 hPa | 0 mm | - | 11 W/m² | - |
| 1777288519 | 14.44° C | 81% | 1004.5 hPa | 0 mm | - | 6 W/m² | - |
| 1777287919 | 13.89° C | 81% | 1005 hPa | 0 mm | - | 0 W/m² | - |
| 1777287318 | 13.89° C | 81% | 1005.1 hPa | 0 mm | - | 0 W/m² | - |
| 1777286718 | 13.89° C | 80% | 1005 hPa | 0 mm | - | 0 W/m² | - |
| 1777286118 | 13.89° C | 80% | 1005.2 hPa | 0 mm | - | 0 W/m² | - |
* Rain latest hour (hover to see other rain measurements)
** Current wind speed in m/s (hover to see current wind gust speed)